Regional Weather Roundup
Issued by NWS

Home | Current Version | Previous Version | Text Only | Print | Product List | Glossary On
Versions: 1 2 3 4 5 6 7 8 9 10 11 12 13 14 15 16 17 18 19 20 21 22 23 24 25 26 27 28 29 30 31 32 33 34 35 36 37 38 39 40 41 42 43 44 45 46 47 48 49 50
299
ASUS43 KDMX 260406
RWRIA

WEATHER ROUNDUP FOR IOWA
NATIONAL WEATHER SERVICE DES MOINES IA
1100 PM CDT THU MAY 25 2017

NOTE: "FAIR" INDICATES FEW OR NO CLOUDS BELOW 12,000 FEET WITH NO
SIGNIFICANT WEATHER AND/OR OBSTRUCTIONS TO VISIBILITY.

* - THESE STATIONS ARE NOT NWS STATIONS...THUS NOT UNDER NWS
QUALITY CONTROL.  THEY ALSO DO NOT REPORT WEATHER SUCH
AS PRECIPITATION OR FOG.

IAZ001>003-012>014-020>022-031>034-043>046-260500-
   NORTHWEST IOWA

CITY           SKY/WX    TMP DP  RH WIND       PRES   REMARKS
CARROLL *      PTCLDY    63  54  72 SE8       29.68S
DENISON *      MOCLDY    64  54  68 SE8       29.68R
LE MARS *      CLEAR     64  52  63 SE8G14    29.64S
ORANGE CITY *  CLEAR     63  54  72 CALM      29.65R
SHELDON *      PTCLDY    61  50  67 SE9       29.63S
SIOUX CITY     CLEAR     60  54  80 SE6       29.64R
SPENCER        PTCLDY    61  52  72 SE12      29.66S
STORM LAKE *   CLOUDY    64  52  63 SE12      29.67S
$$

IAZ055>058-069>071-079>083-090>094-260500-
   SOUTHWEST IOWA

CITY           SKY/WX    TMP DP  RH WIND       PRES   REMARKS
ATLANTIC *     CLOUDY    66  54  63 SE5G12    29.68S
AUDUBON *      LGT RAIN  63  55  77 S5        29.70S
CLARINDA *     CLOUDY    66  55  68 SE5       29.70F
COUNCIL BLFS * CLOUDY    64  57  77 SE8       29.66R
CRESTON *      CLOUDY    63  54  72 SE14      29.71F
HARLAN  *      CLOUDY    66  55  68 SE8       29.70S
LAMONI         CLOUDY    63  52  67 E3        29.73R
RED OAK *      CLOUDY    66  55  68 SE8       29.67S
SHENANDOAH *   CLOUDY    68  55  64 SE13      29.67S
$$

IAZ047>049-059>061-072>074-084-260500-
   CENTRAL IOWA

CITY           SKY/WX    TMP DP  RH WIND       PRES   REMARKS
AMES           CLOUDY    57  54  89 S3        29.72R
ANKENY *       MOCLDY    66  52  59 CALM      29.74R
BOONE *        CLOUDY    63  54  72 S6        29.72R
CHARITON *     PTCLDY    63  54  72 S7        29.73R
DES MOINES     CLOUDY    66  52  60 S3        29.72R
GRINNELL*      CLOUDY    64  50  61 CALM      29.74R
KNOXVILLE *    CLOUDY    64  52  63 S6G13     29.72R
MARSHALLTOWN   MOCLDY    62  52  69 CALM      29.73R
NEWTON *       CLOUDY    64  52  63 S8        29.72R
PELLA *        CLOUDY    65  51  60 NW7       29.75R
PERRY *          N/A     62  50  65 SE3       29.72R
$$

IAZ004>006-015-016-023>025-035-036-260500-
   NORTH CENTRAL IOWA

CITY           SKY/WX    TMP DP  RH WIND       PRES   REMARKS
ALGONA *       PTCLDY    61  52  72 SE10      29.71R
CLARION *      CLOUDY    59  54  82 SE6       29.73R
ESTHERVILLE    CLOUDY    57  53  86 SE13      29.67R
FORT DODGE *   PTCLDY    59  52  77 SE7       29.72S
MASON CITY     CLOUDY    55  52  89 SE5       29.74R
WEBSTER CITY * CLOUDY    61  52  72 E5        29.71R
IOWA FALLS *     N/A     61  54  78 NW3       29.75R
$$

IAZ007>011-017>019-026>030-037>042-050>054-066-260500-
   NORTHEAST IOWA

CITY           SKY/WX    TMP DP  RH WIND       PRES   REMARKS
CEDAR RAPIDS   CLOUDY    62  52  69 S3        29.73R
CHARLES CITY * MOCLDY    63  52  67 S6        29.74S
CLINTON *      CLEAR     60  56  86 SE8       29.77R
DECORAH *      CLOUDY    63  54  72 S5G12     29.74R
DUBUQUE        MOCLDY    61  53  75 SE8       29.75S
MONTICELLO *   PTCLDY    63  55  77 SE10      29.73R
OELWEIN *      CLOUDY    63  52  67 S6        29.75R
WATERLOO       CLOUDY    65  50  58 CALM      29.73R
$$

IAZ064-065-067-068-078-260500-
   EAST CENTRAL IOWA

CITY           SKY/WX    TMP DP  RH WIND       PRES   REMARKS
DAVENPORT      PTCLDY    61  55  81 SE9       29.76S
IOWA CITY      MOCLDY    64  53  67 SW6       29.73R
MUSCATINE *    PTCLDY    61  54  77 SE7       29.73S
QUAD CITIES    PTCLDY    58  52  80 E5        29.75R
$$

IAZ062-063-075>077-085>089-095>099-260500-
   SOUTHEAST IOWA

CITY           SKY/WX    TMP DP  RH WIND       PRES   REMARKS
BURLINGTON     PTCLDY    63  55  75 SE12      29.73F
FAIRFIELD *    CLOUDY    64  52  63 SE8       29.74R
FORT MADISON * CLOUDY    64  55  72 SE7       29.75F
KEOKUK *       PTCLDY    63  55  77 SE7       29.73F
CENTERVILLE *    N/A     63  52  67 CALM      29.74R
OTTUMWA        CLOUDY    65  51  60 SE5       29.72R
WASHINGTON *   CLOUDY    63  54  72 S10       29.75R
$$

ABBREVIATIONS USED IN REMARKS
   TC - TEMPERATURES IN CELSIUS
  WCI - WIND CHILL INDEX
   HX - HEAT INDEX
  VSB - VISIBILITY
$$





USA.gov is the U.S. government's official web portal to all federal, state and local government web resources and services.